Tracking 25711 objects as of 22-May-2022
HD Live streaming from Space Station
objects crossing your sky now

DELTA 2 R/B(1)

Track DELTA 2 R/B(1) now!
10-day predictions


NORAD ID: 22015
Int'l Code: 1992-039B
Perigee: 475.3 km
Apogee: 534.9 km
Inclination: 20.7 °
Period: 94.6 minutes
Semi major axis: 6876 km
RCS: 9.3859 m2 (large)
Launch date: July 7, 1992
Source: United States (US)
Launch site: AIR FORCE EASTERN TEST RANGE (AFETR)

Note: This is a ROCKET BODY
aabbcc
Your satellite tracking list
Your tracking list is empty




NASA's NSSDC Master Catalog

Two Line Element Set (TLE):
1 22015U 92039B   22141.92913208  .00013473  00000-0  52352-3 0  9995
2 22015  20.7151  55.3451 0043339 113.6635 246.8361 15.22615910664411
Source of the keplerian elements: AFSPC